Woodinville, Washington, United States (98072)
Lat: 47.75N, Lon: 122.16W
Wx Zone: WAZ505
Local Info
Past Weather Observations for Thursday, April 17, 2014

NOTE: This archive is for the closest National Weather Service station to Woodinville. Information may differ from the station used for current weather conditions.

Time Weather Temperature Dewpoint Humidity Pressure Winds Precip Visibility
23:53
Overcast
Light Rain
45°F / 7°C 39°F / 4°C 81% 29.92 in
(1013 mb)
E 4.6 mph
(E 7 kph)
0.01 in
(0.25 mm)
8SM
22:53
Overcast
45°F / 7°C 37°F / 3°C 76% 29.89 in
(1012 mb)
N 4.6 mph
(N 7 kph)
- 10SM
21:53
Overcast
45°F / 7°C 39°F / 4°C 81% 29.89 in
(1012 mb)
Variable 4.6 mph
(Variable 7 kph)
0.00 in
(0.00 mm)
10SM
20:53
Overcast
Light Rain
45°F / 7°C 39°F / 4°C 81% 29.83 in
(1010 mb)
NNW 8.1 mph
(NNW 13 kph)
0.03 in
(0.76 mm)
9SM
20:04
Overcast
Light Rain
45°F / 7°C 43°F / 6°C 93% 29.8 in
(1009 mb)
N 8.1 mph
(N 13 kph)
0.01 in
(0.25 mm)
4SM
19:57
Overcast
Rain
45°F / 7°C 43°F / 6°C 93% 29.8 in
(1009 mb)
N 4.6 mph
(N 7 kph)
0.01 in
(0.25 mm)
2 1/2SM
19:53
Overcast
Rain
45°F / 7°C 43°F / 6°C 93% 29.8 in
(1009 mb)
N 3.5 mph
(N 6 kph)
0.10 in
(2.54 mm)
3SM
18:59
Overcast
46°F / 8°C 45°F / 7°C 93% 29.74 in
(1007 mb)
NNW 12.7 mph
(NNW 20 kph)
- 10SM
18:56
Overcast
48°F / 9°C 46°F / 8°C 94% 29.74 in
(1007 mb)
N 9.2 mph
(N 15 kph)
- 10SM
18:53
Overcast
48°F / 9°C 46°F / 8°C 94% 29.74 in
(1007 mb)
N 6.9 mph
(N 11 kph)
0.03 in
(0.76 mm)
10SM
17:53
Overcast
50°F / 10°C 46°F / 8°C 88% 29.74 in
(1007 mb)
SSE 15 mph
(SSE 24 kph)
0.00 in
(0.00 mm)
10SM
16:53
Overcast
Light Rain
50°F / 10°C 46°F / 8°C 88% 29.74 in
(1007 mb)
S 19.6 mph
(S 32 kph)
0.01 in
(0.25 mm)
7SM
16:00
Overcast
Light Rain
50°F / 10°C 46°F / 8°C 88% 29.74 in
(1007 mb)
S 17.3 mph
(S 28 kph)
0.00 in
(0.00 mm)
9SM
15:53
Overcast
Light Rain
50°F / 10°C 46°F / 8°C 88% 29.74 in
(1007 mb)
S 17.3 mph
(S 28 kph)
0.01 in
(0.25 mm)
8SM
15:21
Overcast
Light Rain
52°F / 11°C 46°F / 8°C 82% 29.74 in
(1007 mb)
S 16.1 mph
(S 26 kph)
0.00 in
(0.00 mm)
3SM
15:12
Overcast
52°F / 11°C 46°F / 8°C 82% 29.74 in
(1007 mb)
S 20.7 mph
(S 33 kph)
- 10SM
15:00
Overcast
54°F / 12°C 46°F / 8°C 77% 29.74 in
(1007 mb)
S 16.1 mph
(S 26 kph)
- 10SM
14:53
Overcast
52°F / 11°C 46°F / 8°C 82% 29.77 in
(1008 mb)
S 16.1 mph
(S 26 kph)
0.00 in
(0.00 mm)
10SM
13:53
Overcast
Light Rain
52°F / 11°C 48°F / 9°C 88% 29.77 in
(1008 mb)
S 15 mph
(S 24 kph)
0.00 in
(0.00 mm)
10SM
13:43
Overcast
Light Rain
52°F / 11°C 46°F / 8°C 82% 29.77 in
(1008 mb)
SSE 17.3 mph
(SSE 28 kph)
0.00 in
(0.00 mm)
10SM
13:36
Overcast
Light Rain
52°F / 11°C 48°F / 9°C 88% 29.77 in
(1008 mb)
SSE 18.4 mph
(SSE 30 kph)
0.00 in
(0.00 mm)
10SM
12:53
Overcast
Light Rain
52°F / 11°C 46°F / 8°C 82% 29.77 in
(1008 mb)
S 18.4 mph
(S 30 kph)
0.00 in
(0.00 mm)
10SM
11:53
Overcast
Light Rain
52°F / 11°C 48°F / 9°C 88% 29.8 in
(1009 mb)
S 17.3 mph
(S 28 kph)
0.01 in
(0.25 mm)
10SM
11:02
Overcast
Light Rain
52°F / 11°C 48°F / 9°C 88% 29.8 in
(1009 mb)
S 16.1 mph
(S 26 kph)
0.01 in
(0.25 mm)
10SM
10:53
Overcast
Light Rain
52°F / 11°C 48°F / 9°C 88% 29.8 in
(1009 mb)
S 16.1 mph
(S 26 kph)
0.02 in
(0.51 mm)
6SM
10:46
Overcast
Light Rain
52°F / 11°C 48°F / 9°C 88% 29.8 in
(1009 mb)
S 13.8 mph
(S 22 kph)
0.02 in
(0.51 mm)
7SM
09:53
Overcast
Light Rain
52°F / 11°C 48°F / 9°C 88% 29.8 in
(1009 mb)
S 12.7 mph
(S 20 kph)
0.02 in
(0.51 mm)
8SM
09:00
Overcast
Light Rain
50°F / 10°C 48°F / 9°C 94% 29.83 in
(1010 mb)
SSE 9.2 mph
(SSE 15 kph)
0.00 in
(0.00 mm)
10SM
08:53
Overcast
Light Rain
50°F / 10°C 46°F / 8°C 88% 29.83 in
(1010 mb)
SSE 9.2 mph
(SSE 15 kph)
0.03 in
(0.76 mm)
2SM
08:18
Overcast
Light Rain
50°F / 10°C 48°F / 9°C 94% 29.83 in
(1010 mb)
S 10.4 mph
(S 17 kph)
0.00 in
(0.00 mm)
2SM
07:53
Overcast
Light Rain
50°F / 10°C 48°F / 9°C 94% 29.83 in
(1010 mb)
S 11.5 mph
(S 19 kph)
0.01 in
(0.25 mm)
10SM
06:53
Overcast
Light Rain
50°F / 10°C 46°F / 8°C 88% 29.83 in
(1010 mb)
S 8.1 mph
(S 13 kph)
0.02 in
(0.51 mm)
7SM
06:03
Overcast
Light Rain
50°F / 10°C 48°F / 9°C 94% 29.86 in
(1011 mb)
S 9.2 mph
(S 15 kph)
0.01 in
(0.25 mm)
7SM
05:53
Overcast
Light Rain
50°F / 10°C 46°F / 8°C 88% 29.86 in
(1011 mb)
SSE 9.2 mph
(SSE 15 kph)
0.01 in
(0.25 mm)
6SM
05:23
Overcast
Light Rain
48°F / 9°C 48°F / 9°C 100% 29.86 in
(1011 mb)
S 6.9 mph
(S 11 kph)
0.01 in
(0.25 mm)
8SM
04:53
Overcast
Light Rain
48°F / 9°C 46°F / 8°C 94% 29.86 in
(1011 mb)
S 4.6 mph
(S 7 kph)
0.02 in
(0.51 mm)
10SM
03:53
Overcast
Light Rain
48°F / 9°C 48°F / 9°C 100% 29.89 in
(1012 mb)
S 4.6 mph
(S 7 kph)
0.01 in
(0.25 mm)
10SM
03:34
Overcast
48°F / 9°C 48°F / 9°C 100% 29.89 in
(1012 mb)
S 5.8 mph
(S 9 kph)
0.01 in
(0.25 mm)
10SM
03:14
Overcast
Light Rain
48°F / 9°C 48°F / 9°C 100% 29.89 in
(1012 mb)
SSE 8.1 mph
(SSE 13 kph)
0.01 in
(0.25 mm)
3SM
02:53
Overcast
Light Rain
50°F / 10°C 48°F / 9°C 94% 29.89 in
(1012 mb)
SW 8.1 mph
(SW 13 kph)
0.03 in
(0.76 mm)
5SM
01:53
Overcast
Light Rain
50°F / 10°C 48°F / 9°C 94% 29.89 in
(1012 mb)
SSE 12.7 mph
(SSE 20 kph)
0.01 in
(0.25 mm)
10SM
00:53
Overcast
Light Rain
48°F / 9°C 46°F / 8°C 94% 29.89 in
(1012 mb)
S 12.7 mph
(S 20 kph)
0.01 in
(0.25 mm)
6SM
Time Weather Temperature Dewpoint Humidity Pressure Winds Precip Visibility


Weather for websites

WeatherForYou.com, LLC is not responsible for any damages or problems caused by this service. Current weather conditions are obtained from the closest station including government and personal stations which may have varying degrees of accuracy. Weather forecasts are derived from the NOAA NDFD. Like all things, this site belongs to Jesus Christ... He just trusts me to maintain it. If you have any questions or comments email webmaster@weatherforyou.com

Copyright © 2014, WeatherForYou.com LLC. All rights reserved.